Orbital Elements at Epoch 2459200.5 (2020-Dec-17.0) TDB
Reference: JPL 24 (heliocentric ecliptic J2000)
Element | Value | Uncertainty (1-sigma) | Units |
e | .1329061693829109 | 2.8224e-08 | |
a | 2.431554702388033 | 8.8105e-09 | au |
q | 2.108386081248636 | 6.8612e-08 | au |
i | .3999248385839299 | 4.1721e-06 | deg |
node | 254.3964981642636 | 0.00049324 | deg |
peri | 229.274383500407 | 0.00049356 | deg |
M | 167.1534575371711 | 1.8589e-05 | deg |
tp | 2458557.460935773094 (2019-Mar-14.96093577) | 7.0068e-05 | TDB |
period | 1384.919382060685 3.79 | 7.5271e-06 2.061e-08 | d yr |
n | .2599429285655165 | 1.4128e-09 | deg/d |
Q | 2.75472332352743 | 9.9814e-09 | au |
|
| | Orbit Determination Parameters
Additional Information
|